Find Starlink 4783

NORAD ID: 53835 Int'l Des: 2022-114 Owner: SPXS Country: US Constellation: starlink operational
LEOCIRCULAR

Live Position

Loading 3D Globe...

About Starlink 4783

Description loading...

Upcoming Passes

Passes for default location (London). Set your location on the main map for personalized predictions.

Altitude History

Loading altitude history...

Two-Line Element Set

1 53835U 22114T 26104.18943743 .00000015 00000-0 19004-4 0 9990
2 53835 53.2164 144.5465 0001226 86.0047 274.1085 15.08837922198192
Epoch: Apr 14, 2026 • Age: 4 hours

Current Status

Altitude 557.7 km
Velocity 7.58 km/s
Sub-Earth Point -49.77°S, 104.69°E
Launch Date Sep 19, 2022
Age 3.5 years
Type internet

Technical Details

Classification Payload
Mass 305.00 kg
Dry Mass 290.00 kg
Total Mass 305.00 kg
Length 0.20 m
Diameter 2.80 m
Span 9.00 m
Shape Box + pan
Manufacturer SPXS
Bus Type Starlink
Phase Status In Orbit
Owner/State SPXS/US

Most Searched